www.pogodaiklimat.ru

Погода и климат >> Архив погоды >> Россия >> Забайкальский край >> Агинское


АРХИВ ПОГОДЫ в Агинском

Время (UTC), дата Ветер
(напр.,м/с)
 
Видим.   Явления Облачность Т
(С)
Тd
(С)
f
(%)
Тe
(С)
Тes
(С)
Комфортность P
(гПа)
Po
(гПа)
Тmin
(С)
Tmax
(С)
R
(мм)
R24
(мм)
S
(см)
00 13.05 С 6-10
{10}
50 км 10/0
[Ac lent Cs]
+9.8 -10.5 23 +7 +8 1002.9 924.4 -1.1
03 13.05 СВ 6-13
{13}
50 км 10/0
[Ac lent Cs]
+12.3 -9.9 20 +10 +14 1000.6 922.9
06 13.05 В 8-12
{13}
50 км 10/0
[Ac As]
+11.6 -0.8 42 +9 +9 999.2 921.5
09 13.05 В 9-13
{13}
50 км 10/0
[Ac lent Ci fib]
+9.3 +2.1 61 +5 +5 1000.2 921.9
12 13.05 В 4
{14}
50 км 9/1 600 м
[Sc Ac lent]
+5.6 +2.2 79 +2 +2 1003.2 923.7 +14.1
15 13.05 З 2 50 км 10/0
[Ac lent Cs]
+1.0 -0.3 91 -3 -3 1005.4 924.4
18 13.05 З 1 50 км 10/0
[Ci fib]
-1.0 -2.3 91 -3 -3 1006.0 924.3
21 13.05 ЮЗ 1 50 км 10/3 600 м
[Sc Ac lent Ci fib]
-2.8 -2.8 100 -5 -5 1006.9 924.7
00 14.05 Ю 1 50 км 10/8 300 м
[Sc Ci fib]
+3.5 +1.1 84 +2 +3 1005.0 924.7 -2.8
03 14.05 ЮВ 1 50 км 3/0
[Ci fib]
+13.6 +1.8 45 +14 +30 опасность
простуды
1000.3 923.1
06 14.05 ЮВ 5
{10}
50 км 10/0
[Ci fib]
+18.5 -2.1 25 +18 +24 996.7 921.0
09 14.05 ЮВ 7-10
{11}
50 км 10/0
[Ac lent Ci fib]
+18.1 -0.8 28 +17 +18 995.6 919.8
12 14.05 ЮВ 3
{12}
50 км 10/0
[Ac trans Ci fib]
+14.2 -1.0 35 +14 +14 996.7 919.9 +19.6
15 14.05 В 3 50 км 10/3 1000 м
[Sc Ac As]
+12.9 +2.5 49 +12 +12 997.0 919.9
18 14.05 В 2 50 км 10/5 600 м
[Cb cap Ac As]
+11.0 +3.4 59 +10 +10 996.8 919.2
21 14.05 В 3 50 км 10/3 1000 м
[Sc Ac trans Ci fib]
+7.3 +2.8 73 +5 +5 995.3 916.8
00 15.05 В 1 50 км 10/3 1000 м
[Sc Ac trans Ci fib]
+11.2 +4.1 62 +11 +14 993.3 916.0 +7.1
03 15.05 В 5 50 км 10/5 600 м
[Cb cap Ac As]
+14.3 +2.8 46 +13 +14 987.7 911.6
06 15.05 ЮЗ 5 10 км слаб. ливневой дождь 10/8 600 м
[Cb cap Ac As]
+14.0 +5.1 55 +12 +13 985.0 909.1
09 15.05 З 8-12
{12}
50 км {ливн. осадки} 10/5 600 м
[Cb cap Ac As]
+6.1 +2.8 79 +1 +1 987.3 909.1
12 15.05 З 6-10
{12}
50 км {ливн. осадки} 10/4 600 м
[Cb cap Ac As]
+4.6 +1.2 79 -1 -1 988.5 909.9 +16.5 0.9
15 15.05 СЗ 5
{11}
50 км {ливн. осадки} 10/1 1000 м
[Sc diur, vesp Ac lent Ci ing]
+3.0 +0.7 85 -2 -2 990.1 910.9
18 15.05 З 6-10
{10}
50 км {ливн. осадки} 6/0
[Ac lent Ci fib]
+3.3 -0.0 79 -2 -2 991.7 912.4
21 15.05 З 8-14
{14}
50 км 10/3 600 м
[Sc As op]
-2.6 -1.2 100 -11 -11 993.0 913.4
00 16.05 СЗ 8-14
{17}
50 км 10/4 1000 м
[Sc diur, vesp As trans]
+3.9 -1.4 68 -2 -2 994.8 915.4 +2.6 2
03 16.05 СЗ 8-14
{20}
50 км 10/5 1000 м
[Cu hum Ci fib]
+7.9 -2.4 48 +4 +5 994.7 916.4
06 16.05 СЗ 10-16
{17}
50 км 10/3 1000 м
[Cu hum Ac trans Ci fib]
+11.1 -5.1 32 +8 +8 994.7 917.2
09 16.05 СЗ 8-13
{18}
50 км 9/9 1000 м
[Cu Sc]
+11.6 -7.0 27 +9 +9 996.2 918.7
12 16.05 СЗ 3
{13}
50 км 10/4 1000 м
[Sc Ac trans Ci fib]
+8.8 -6.4 33 +7 +7 999.5 921.0 +11.7
15 16.05 З 5
{10}
50 км 9/3 1000 м
[Sc Ac und]
+6.5 -7.5 36 +3 +3 1001.3 922.0
18 16.05 З 6
{10}
50 км 9/0
[Ac und]
+4.4 -7.6 41 -0 -0 1001.4 921.5
21 16.05 З 5
{10}
50 км 8/3 1000 м
[Sc Ac trans]
+2.6 -7.0 49 -2 -2 1001.7 921.3
00 17.05 З 9-14
{15}
50 км 10/1 1000 м
[Cu hum Ac lent Ci fib]
+4.9 -6.3 44 -1 -0 1001.4 921.7 +2.4
03 17.05 З 10-15
{16}
50 км 9/9 1000 м
[Cu med, cong]
+5.9 -4.4 48 0 +1 1001.7 922.2
06 17.05 З 11-16
{20}
20 км 10/10 600 м
[Cb calv]
+6.3 -3.2 51 +1 +1 1002.8 923.4
09 17.05 СЗ 10-16
{18}
50 км {ливн. осадки} 10/6 600 м
[Cb calv Ac As]
+5.9 -3.2 52 0 0 1004.3 924.7
12 17.05 З 9-13
{17}
50 км {ливн. осадки} 10/6 600 м
[Cb calv Ac As]
+4.9 -3.7 54 -1 -1 1006.1 926.1 +6.6
15 17.05 З 7-10
{14}
20 км ливневой дождь 10/6 600 м
[Cb calv Ac As]
+2.0 -0.5 83 -4 -4 1008.0 927.0
18 17.05 З 7
{11}
20 км ливневой снег 10/6 600 м
[Cb calv Ac As]
+1.3 -0.4 88 -5 -5 1007.7 926.6
21 17.05 З 6-10
{11}
50 км сильн. ливневой дождь 3/3 600 м
[Cb calv]
+1.6 -0.8 84 -5 -5 1007.5 926.4
00 18.05 З 8-13
{13}
50 км {ливн. осадки} 10/4 300 м
[Frnb As op]
+2.5 -0.5 81 -4 -4 1008.1 927.2 +1.2 0.8
03 18.05 З 8-13
{14}
50 км 10/8 1000 м
[Cu Sc As trans]
+5.3 -1.5 61 0 0 1008.9 928.8
06 18.05 СЗ 8-13
{15}
50 км 10/6 1000 м
[Cu med, cong Ac As]
+6.7 -1.0 58 +2 +2 1010.1 930.3
09 18.05 СЗ 7-12
{15}
50 км 10/1 1000 м
[Cu hum Ac As]
+6.1 -0.8 61 +1 +2 1011.1 931.0
12 18.05 З 6
{14}
20 км слаб. дождь 10/0
[As op]
+3.5 +0.9 83 -2 -2 1013.2 932.3 +7.3 0.3
15 18.05 З 4
{10}
50 км {дождь} 8/0
[Ci fib]
+2.4 0.0 84 -2 -2 1013.7 932.4
18 18.05 З 3 50 км {дождь} 6/0
[Ac lent Ci fib]
+1.0 -1.4 84 -3 -3 1013.0 931.3
21 18.05 З 4 50 км 10/4 1000 м
[Sc Ci fib]
+1.1 -1.3 84 -4 -4 1011.9 930.4
00 19.05 СЗ 3 50 км 10/4 1000 м
[Cu Sc Ci fib]
+4.1 +0.4 77 +1 +3 1011.5 930.8 +0.3 0.4
03 19.05 СЗ 2 50 км 10/10 600 м
[Cb cap]
+7.0 +0.9 65 +5 +5 1011.3 931.4
06 19.05 СЗ 4 50 км {ливн. осадки} 10/10 600 м
[Cb cap]
+7.9 +2.1 67 +5 +5 1011.1 931.5
09 19.05 С 5
{10}
50 км 8/8 600 м
[Cb cap]
+10.9 +1.5 52 +8 +9 1009.8 931.1
12 19.05 С 3 50 км 8/8 600 м
[Cb cap]
+10.4 +2.1 56 +9 +9 1010.9 932.0 +12.2 0.0
15 19.05 СЗ 3 50 км 8/8 1000 м
[Sc diur, vesp]
+5.1 +1.3 76 +2 +2 1012.7 932.2
18 19.05 СЗ 4 50 км 8/5 1000 м
[Sc Ac As]
+6.5 -1.1 58 +3 +3 1011.5 931.5

 

Местоположение метеостанции Агинское (Забайкальский край, Россия): широта 51.10 долгота 114.50 высота над уровнем моря 681 м.

В архиве по умолчанию представлена погода в Агинском за последнюю неделю. Архивные данные за месяц целиком и за предыдущие месяцы, начиная с января 2011 года, Вы можете получить, выбрав интересующий диапазон дат из раскрывающегося списка и нажав кнопку "Ввод!".


*Определитесь, кто Вы:
робот инопланетянин человек

Внимание! Время в таблицах - всемирное. Для получения местного времени необходимо прибавить поправку, которая равна 9 ч.

Смотрите также архив погоды в соседних городах и на ближайших метеорологических станциях:

Погода в Могойтуе (Забайкальский край, Россия) (38 км)
Погода в Курорт-Дарасуне (Забайкальский край, Россия) (57 км)
Погода в Карымской (Забайкальский край, Россия) (61 км)
Погода в Оловянной (Забайкальский край, Россия) (72 км)
Погода в Нижнем Цасучее (Забайкальский край, Россия) (78 км)
Погода в Дульдурге (Забайкальский край, Россия) (84 км)
Погода в Бырке (Забайкальский край, Россия) (111 км)
Погода в Акше (Забайкальский край, Россия) (130 км)
Погода в Чите (Забайкальский край, Россия) (133 км)
Погода в Шилке (Забайкальский край, Россия) (135 км)

Пояснения к столбцам:

Ветер - указаны скорость ветра в м/с - средняя за 10 мин, порывы в срок и между сроками (в фигурных скобках) и направление, откуда дует ветер: С - северный, СВ - северо-восточный, В - восточный, ЮВ - юго-восточный, Ю - южный, ЮЗ - юго-западный, З - западный, СЗ - северо-западный.
Видимость - горизонтальная дальность видимости в метрах или километрах. При видимости от 1 до 10 км при отсутствии осадков обычно наблюдается дымка, при ухудшении видимости до 1 км и менее - туман. В сухую погоду видимость может ухудшаться дымом, пылью или мглою.
Явления - указаны атмосферные явления, наблюдавшиеся в срок или в последний час перед сроком; фигурными скобками обозначены явления, наблюдавшиеся между сроками (за 1-3 часа до срока); квадратными скобками обозначены град или гололедные отложения с указанием их диаметра в мм.
Облачность - указаны через наклонную черту общая и нижняя облачность в баллах и высота нижней границы облаков в метрах; квадратными скобками обозначены формы облаков: Ci - перистые, Cs - перисто-слоистые, Cc - перисто-кучевые, Ac - высококучевые, As - высокослоистые, Sc - слоисто-кучевые, Ns - слоисто-дождевые, Cu - кучевые, Cb - кучево-дождевые. Подробнее классификацию облаков см. в Атласе облаков (PDF).
T - Температура воздуха - температура, измеренная на высоте 2 м над землей.
Td - Температура точки росы - температура, при понижении до которой содержащийся в воздухе водяной пар достигнет насыщения.
f - Относительная влажность воздуха - влажноcть воздуха, измеренная на высоте 2 м над землей.
Te - Эффективная температура - температура, которую ощущает одетый по сезону человек в тени. Характеристика душности погоды. При расчете учитывается влияние влажности воздуха и скорости ветра на теплоощущения человека.
Tes - Эффективная температура на солнце - температура, которую ощущает человек, с поправкой на солнечный нагрев. Характеристика знойности погоды. Зависит от высоты солнца над горизонтом, облачности и скорости ветра. Ночью, в пасмурную погоду, а также при ветре 12 м/с и более поправка равна нулю.
P - Атмосферное давление - приведенное к уровню моря атмосферное давление.
Po - Атмосферное давление - измеренное на уровне метеостанции атмосферное давление.
Tmin - Минимальная температура - минимум температуры воздуха на высоте 2 м над землей.
Tmax - Максимальная температура - максимум температуры воздуха на высоте 2 м над землей.
R - Количество осадков - Количество выпавших осадков за период времени, мм. При наведении курсора мыши на число - период времени, за который выпало указанное количество осадков.
R24 - Количество осадков - Количество выпавших осадков за 24 часа, мм.
S - Снежный покров - Высота снежного покрова, см. При наведении курсора мыши на число - состояние снежного покрова и степень покрытия местности в баллах.